STARLINK-1807, 46706

Orbit data source: Space-Track

STARLINK-1807, 46706 is a payload satellite owned by SpaceX/Seattle (US) in LEO that was launched on Sun, 18 Oct 2020 UTC via an FALCON 9 launch vehicle from the Air Force Eastern Test Range (AFETR). Payload-class satellites include a variety of spacecraft equipped with specific instruments for various scientific and technological missions. These include communications satellites like Starlink; space stations such as the ISS; scientific satellites like the Hubble; Earth observation satellites from companies like Planet Labs, Umbra, and HawkEye 360; GPS; miniature CubeSats for education and research; and military/defense satellites.

Loading next visibility...
Identifier
46706, 2020-073AN
Orbit
LEO
Last TLE update
19 hours ago
Origin
Manufacturer
SpaceX/Seattle
Mission
Operational Commercial Communications
Bus & Motor
STARLINK, Unknown motor
Mass
260 kg wet, ~248 kg dry
Launch date (UTC)
2020-10-18 (5 years ago)
Launch vehicle
FALCON 9
Launch site
Air Force Eastern Test Range (AFETR)
Object type
Payload
Rocket body
Debris
Shape & HBR
Box + 1 Pan, 8.86 m
Radar Cross Section
13.562 m², Large (>1 m²)

Expand to show TLE details & history

TLE from 19 hours ago
0 STARLINK-1807
1 46706U 20073AN  25128.44327585  .00001098  00000-0  92595-4 0  9993
2 46706  53.0533 171.9222 0001330  78.4093 281.7045 15.06411593251129
Epoch: 2025-05-08T10:38Z
Definitive object data (Epoch: 2025-05-08T10:38:19.033Z)
Latitude
-0.00004°
Longitude
145.82917°
Altitude
547.868 km
Speed
7.589 km/s
True Right ascension
11h 27m 41s
True Declination
0° 00' 00"
Sunlit
Object was in full shadow at TLE epoch
Visualization TLE readout
Latitude
-33.5955°
Longitude
-7.83965°
Altitude
558.451 km
Speed
7.582 km/s
Apparent Right ascension
01h 14m 54s
Apparent Declination
-36° 26' 53"
Sunlit
Object is in daylight
Visualization observer readout
Local Sidereal Time
13:17:08
Azimuth
7.402° NNE
Elevation
-86.504°
Doppler factor
1
Orbital elements
Apogee altitude
548.368 km
Perigee altitude
546.526 km
Semi-major axis
6,925.584 km
Eccentricity
0.000133
Inclination
53.0533°
RAAN
171.9222°
Arg. of periapsis
78.4093°
True anomaly
281.68958°
Mean anomaly
281.7045°
Eccentric anomaly
281.69704°
Mean motion
3.76581 °/min
BSTAR
0.000092595
Orbital period
95.6 mins
Loading maneuver chart data...
Loading SW <> Apogee altitude chart data...
Loading historical data...
Loading historical data...
Loading historical data...
Loading historical data...
Loading historical data...
Loading historical data...
Loading historical data...

STARLINK-1807 Visibility forecast

Observer location: undefined°, undefined°

Span
Click to sort rows by Start time (UTC) header in descending order
Start Az.
Max El. time (UTC)
Max El. Az.
Max El.
End time (UTC)
End Az.
7 mins2025-05-09 05:56:31.533Z243.547° WSW2025-05-09 05:59:31.533Z308.301° NW41.516°2025-05-09 06:03:31.533Z44.541° NE
4 mins2025-05-09 07:38:31.533Z318.119° NNW2025-05-09 07:39:31.533Z335.91° NNW16.953°2025-05-09 07:42:31.533Z24.598° NE
5 mins2025-05-09 10:59:31.533Z345.39° N2025-05-09 11:01:31.533Z28.046° NE23.192°2025-05-09 11:04:31.533Z79.827° E
6 mins2025-05-09 12:38:31.533Z299.961° NW2025-05-09 12:41:31.533Z196.497° SSW40.985°2025-05-09 12:44:31.533Z144.393° SSE
4 mins2025-05-10 04:12:31.533Z163.02° S2025-05-10 04:14:31.533Z119.43° SE21.902°2025-05-10 04:16:31.533Z83.891° E
|